Temperature
5 4 4 5 5 4 5 5 5 4 5 5 5 5 5 5 5 5 5 5 5 5 5 5 5 5 5 5 5 5 5 5 5 5 6 6 7 7 7 7 8 8 8
4 4 4 4 4 4 4 4 4 4 4 4 4 4 4 4 4 4 4 4 4 4 4 4 4 4 4 4 4 4 4 4 3 4 5 5 6 6 6 6 6 7 7
4 4 4 4 4 3 3 3 3 3 3 3 3 3 3 3 3 3 3 3 3 3 3 3 3 3 3 2 2 2 2 2 2 2 3 4 4 4 5 5 5 5 6
4 4 4 3 3 3 3 3 3 3 3 3 3 3 2 2 2 2 2 2 2 2 2 2 1 1 1 1 1 1 1 1 1 1 1 2 2 3 3 3 4 4 5
4 3 3 3 3 3 3 2 2 2 2 2 2 2 2 2 1 1 1 1 1 1 1 0 0 0 -0 -0 -1 -1 -1 -1 -1 -1 -1 -0 0 1 1 1 1 2 3
3 3 3 3 2 2 2 2 2 2 1 1 1 1 1 1 0 0 -0 -0 -0 -1 -1 -1 -1 -1 -1 -1 -2 -2 -2 -2 -2 -2 -2 -2 -2 -1 -1 -1 -1 0 1
3 3 3 2 2 2 2 2 1 1 1 1 1 0 0 -0 -1 -1 -1 -2 -2 -2 -2 -2 -2 -2 -2 -2 -2 -2 -3 -3 -3 -4 -3 -3 -3 -3 -3 -2 -2 -2 -1
3 3 3 2 2 2 1 1 1 1 0 0 -0 -0 -1 -1 -1 -2 -2 -2 -3 -3 -3 -3 -3 -3 -3 -4 -4 -4 -3 -3 -4 -4 -4 -4 -4 -4 -4 -4 -3 -3 -2
3 3 2 2 2 1 1 1 0 -0 -0 -0 -1 -1 -1 -1 -2 -2 -3 -3 -3 -3 -3 -4 -4 -4 -4 -5 -5 -5 -5 -4 -4 -4 -5 -5 -4 -4 -4 -4 -4 -4 -3
3 3 2 2 1 1 1 0 -0 -1 -1 -1 -1 -2 -2 -2 -3 -3 -4 -4 -4 -4 -4 -4 -5 -5 -6 -6 -6 -6 -6 -5 -5 -5 -5 -5 -5 -4 -5 -5 -5 -5 -4
2 2 2 1 1 0 0 -0 -1 -1 -1 -2 -2 -2 -3 -3 -3 -4 -4 -5 -5 -5 -5 -5 -5 -5 -6 -6 -6 -6 -6 -6 -6 -6 -5 -5 -5 -5 -5 -5 -5 -5 -5
2 2 1 1 0 -0 -0 -1 -1 -2 -2 -2 -2 -3 -3 -3 -4 -4 -5 -5 -6 -6 -6 -6 -6 -6 -6 -6 -6 -7 -7 -7 -6 -6 -6 -6 -6 -6 -5 -5 -5 -5 -5
2 1 1 0 -0 -0 -1 -1 -2 -2 -2 -3 -3 -3 -3 -4 -4 -5 -5 -6 -6 -6 -6 -6 -7 -7 -7 -7 -7 -7 -7 -7 -7 -7 -7 -7 -7 -7 -6 -6 -6 -6 -5
1 1 0 -0 -1 -1 -1 -2 -2 -2 -3 -3 -4 -4 -4 -4 -4 -5 -6 -6 -6 -7 -7 -7 -7 -7 -7 -7 -7 -7 -8 -8 -8 -8 -8 -8 -8 -7 -7 -7 -7 -7 -6
1 0 0 -1 -1 -1 -2 -2 -2 -3 -4 -4 -4 -5 -5 -5 -6 -6 -7 -7 -7 -7 -8 -7 -7 -8 -8 -8 -8 -8 -8 -8 -8 -8 -9 -8 -8 -8 -8 -7 -7 -7 -7
0 0 -0 -1 -1 -2 -2 -2 -3 -3 -4 -5 -5 -6 -6 -6 -7 -7 -7 -7 -7 -8 -8 -8 -8 -8 -9 -9 -9 -9 -9 -9 -9 -9 -9 -9 -9 -9 -8 -8 -8 -8 -8
-0 -0 -1 -1 -2 -2 -3 -3 -3 -3 -4 -5 -5 -6 -6 -6 -7 -7 -7 -8 -8 -8 -8 -8 -9 -9 -9 -9 -9 -9 -9 -9 -9 -9 -9 -9 -9 -9 -9 -9 -8 -8 -8
-0 -1 -1 -2 -2 -3 -3 -4 -4 -4 -4 -4 -5 -6 -6 -6 -7 -7 -8 -8 -8 -8 -9 -9 -9 -9 -10 -10 -10 -10 -10 -10 -10 -10 -10 -9 -9 -9 -9 -9 -9 -9 -8
-1 -1 -2 -2 -3 -3 -4 -4 -5 -5 -5 -5 -5 -6 -6 -7 -7 -7 -8 -8 -8 -9 -9 -9 -10 -10 -10 -10 -10 -10 -10 -10 -10 -10 -10 -10 -10 -10 -9 -9 -9 -9 -9
-1 -2 -2 -3 -3 -4 -4 -5 -5 -5 -6 -6 -6 -6 -7 -7 -7 -8 -8 -9 -9 -9 -9 -10 -10 -10 -10 -10 -10 -10 -10 -10 -10 -10 -10 -10 -10 -10 -9 -9 -9 -9 -8
-2 -2 -3 -3 -4 -4 -5 -5 -5 -6 -6 -6 -7 -7 -8 -8 -8 -8 -9 -9 -9 -9 -10 -10 -10 -10 -10 -10 -10 -10 -10 -10 -10 -10 -10 -10 -10 -9 -9 -9 -9 -9 -8
-2 -3 -3 -4 -4 -5 -5 -5 -6 -6 -7 -7 -7 -7 -8 -8 -8 -9 -9 -9 -9 -10 -10 -10 -10 -10 -10 -10 -10 -10 -10 -10 -10 -10 -10 -10 -9 -9 -9 -9 -9 -8 -8
-3 -3 -4 -4 -5 -5 -5 -6 -6 -7 -7 -7 -7 -8 -8 -8 -8 -9 -9 -9 -9 -9 -9 -10 -10 -10 -10 -10 -10 -10 -10 -10 -10 -10 -10 -9 -9 -9 -9 -9 -9 -8 -8
-3 -3 -4 -4 -5 -5 -6 -6 -7 -7 -7 -7 -8 -8 -8 -8 -9 -9 -9 -9 -9 -9 -9 -9 -10 -10 -10 -10 -9 -9 -9 -9 -9 -9 -9 -9 -9 -9 -9 -9 -9 -8 -8
-3 -4 -4 -5 -5 -6 -6 -6 -7 -7 -7 -8 -8 -8 -8 -9 -9 -9 -9 -9 -9 -9 -9 -9 -9 -9 -9 -9 -9 -9 -9 -9 -9 -9 -9 -9 -9 -9 -9 -9 -8 -8 -8
-4 -4 -5 -5 -5 -6 -6 -6 -7 -7 -8 -8 -8 -8 -9 -9 -9 -9 -9 -9 -9 -9 -9 -9 -9 -9 -9 -9 -9 -9 -9 -9 -9 -9 -9 -9 -9 -9 -9 -9 -8 -8 -8
Wind_Speed
4 4 5 5 6 7 6 7 6 7 7 7 7 7 8 8 7 6 7 7 7 7 7 7 7 6 5 5 4 4 4 4 7 6 4 5 5 6 7 7 9 9 10
2 3 4 5 6 6 6 6 6 6 7 7 7 7 8 8 7 7 7 7 7 7 7 7 7 7 7 6 5 5 4 4 5 8 6 5 6 6 7 7 7 7 8
2 3 4 4 4 4 5 5 6 6 7 7 7 7 7 7 7 6 6 6 6 6 6 7 7 7 7 6 6 6 5 5 4 6 7 6 5 6 7 7 6 6 7
2 2 2 2 2 3 4 5 5 5 6 6 7 6 6 6 6 6 6 6 6 6 6 6 6 6 6 7 6 6 6 6 5 6 6 6 6 6 6 6 7 6 7
3 2 1 1 2 2 3 4 4 5 5 5 5 6 6 5 5 6 5 6 6 6 6 6 6 8 10 8 7 7 7 6 5 6 6 6 6 6 6 6 8 7 7
3 2 0 1 1 2 2 3 4 4 4 4 5 5 6 6 9 10 7 5 5 6 6 7 7 8 11 13 14 13 11 8 7 6 6 7 8 8 7 8 8 8 6
3 2 1 1 0 1 2 2 3 3 3 4 4 4 5 7 10 10 10 5 4 5 6 6 7 8 10 7 11 13 11 13 11 8 8 8 8 8 9 9 8 9 9
3 2 2 1 1 1 1 2 2 2 2 2 3 4 4 6 10 10 10 5 4 5 5 6 7 8 9 10 8 8 8 8 10 7 7 8 8 8 8 9 10 10 9
4 3 3 2 2 1 2 2 2 2 2 2 3 3 4 6 10 10 9 3 4 6 6 6 7 7 13 15 10 9 10 9 12 14 14 14 16 16 13 7 7 8 10
5 4 3 3 3 3 3 2 2 2 2 3 3 3 4 5 9 10 10 3 5 5 6 6 10 11 15 16 10 9 10 9 9 10 10 12 10 11 13 8 6 7 8
4 3 3 3 3 3 2 2 2 2 2 3 4 4 4 5 8 10 11 5 5 6 6 6 7 15 17 17 14 9 12 12 8 8 8 8 7 6 6 6 6 6 8
4 4 3 3 2 2 2 2 2 2 2 3 3 4 4 4 7 9 12 11 10 7 7 7 9 17 18 17 13 13 17 14 7 7 7 7 7 7 6 7 8 9 10
5 4 3 3 2 2 2 2 2 2 2 3 3 4 4 4 5 11 12 13 14 9 8 13 16 17 16 11 13 16 13 7 7 7 7 7 6 7 7 7 8 9 10
5 4 3 3 2 2 2 2 2 2 3 4 4 4 5 5 5 5 5 7 10 10 9 11 15 15 12 12 11 9 7 6 7 7 8 7 7 7 7 7 8 8 9
5 5 4 3 3 3 2 3 3 4 4 4 4 4 5 6 7 12 10 7 7 8 9 6 5 6 6 6 6 6 6 6 7 6 7 8 8 8 8 7 7 8 9
5 5 4 3 3 2 2 3 5 5 7 8 8 7 6 9 13 13 14 15 15 15 9 6 6 7 7 7 8 7 7 7 7 7 7 7 8 9 9 8 8 8 10
6 5 4 3 3 3 2 2 4 5 6 7 8 9 9 11 12 13 14 14 14 12 6 6 7 7 7 8 8 8 8 8 7 7 8 8 8 8 9 9 9 9 9
6 6 5 4 3 3 3 3 3 4 5 5 6 9 10 11 12 12 13 11 7 7 5 6 7 7 8 8 8 8 9 9 8 8 8 8 8 8 9 9 9 9 10
6 4 4 3 3 3 3 3 3 4 5 5 5 6 9 10 11 11 10 5 6 7 7 7 7 8 8 8 8 8 9 9 9 8 8 8 8 8 9 9 9 13 12
5 7 5 4 3 3 3 3 3 4 4 5 5 5 6 6 5 6 6 5 6 7 7 8 8 8 8 8 8 8 9 9 9 8 8 8 8 8 9 11 10 10 10
4 5 6 4 4 4 3 4 4 4 4 5 5 7 9 6 5 6 6 6 7 7 8 8 8 8 8 8 8 9 10 9 9 8 8 8 8 9 9 9 10 10 9
5 4 4 4 4 4 3 3 3 4 5 6 5 7 10 6 5 6 7 7 7 7 7 8 8 8 8 8 9 9 9 9 9 8 9 9 8 9 9 9 9 8 8
5 5 4 4 4 5 4 3 3 4 5 5 5 6 6 5 6 6 7 7 7 8 8 8 9 9 9 9 9 9 9 10 9 9 10 9 9 9 8 8 9 9 9
6 6 5 4 4 4 4 4 4 5 5 5 5 5 6 6 6 7 7 7 8 8 8 9 9 11 14 12 11 10 11 12 12 10 11 10 10 9 8 8 8 9 8
6 6 5 5 5 4 4 4 4 5 5 5 5 5 6 6 7 7 7 7 8 9 10 10 9 11 13 15 14 14 17 20 18 13 10 9 10 9 8 8 8 8 8
6 6 5 5 5 4 4 4 4 5 5 5 5 5 6 6 7 7 7 7 8 9 10 10 11 14 15 15 16 18 19 20 19 18 12 8 8 7 7 6 8 7 7
Wind_Direction
32 43 42 32 32 35 36 30 26 24 22 23 23 28 29 26 23 28 30 27 26 21 17 14 5 355 351 345 335 326 314 302 284 294 304 313 304 297 295 290 279 271 264
46 56 52 41 37 33 30 26 27 27 24 23 22 28 29 25 23 26 25 25 25 21 13 12 6 1 358 350 340 328 317 306 290 293 299 306 299 300 293 287 286 286 281
81 71 55 42 36 27 22 22 26 26 23 22 24 26 22 19 19 21 22 21 21 17 10 9 4 4 358 349 346 341 326 317 305 297 299 305 302 314 305 296 292 284 289
118 91 63 38 32 25 21 22 23 24 24 20 21 18 14 12 14 14 16 18 15 11 6 2 359 358 350 343 341 337 332 329 323 313 308 307 309 314 312 307 304 296 289
140 124 88 28 35 32 26 20 21 24 22 17 15 10 4 4 8 10 11 11 8 0 357 354 352 352 352 350 345 341 338 331 324 320 314 315 314 322 318 310 300 300 291
156 166 160 68 47 29 17 15 17 14 9 12 9 2 360 359 359 4 7 8 360 355 347 343 341 344 345 344 341 338 335 327 323 316 311 310 313 315 318 313 308 303 296
169 174 172 152 52 345 1 10 360 351 355 356 350 350 343 342 352 355 360 2 354 344 338 335 336 336 338 326 328 332 328 325 319 309 302 301 302 306 305 304 305 302 291
180 191 196 191 240 300 332 328 319 315 325 323 326 330 330 337 347 346 348 354 335 326 321 318 316 318 325 326 321 319 311 307 307 304 290 289 292 292 288 291 294 296 290
194 202 204 198 218 253 279 290 291 299 311 310 316 325 326 326 341 343 345 328 321 316 314 317 318 311 320 325 321 313 309 304 309 307 303 301 302 303 302 303 302 299 296
208 204 200 197 208 233 253 268 276 285 296 313 320 317 313 313 331 338 337 319 317 314 310 307 314 318 319 321 316 308 305 304 305 307 304 303 300 300 302 294 289 289 289
196 188 191 200 215 228 240 250 273 291 308 313 311 308 304 311 326 332 332 325 311 311 310 307 305 317 318 319 318 308 306 310 305 302 299 296 293 290 288 283 273 270 275
179 184 197 211 222 221 227 262 273 281 298 302 303 303 296 301 320 324 326 325 322 310 306 303 304 314 316 317 317 313 314 317 308 303 299 298 298 295 291 286 279 270 264
180 193 204 210 221 219 218 242 262 260 271 288 292 300 304 303 309 321 322 321 320 314 300 306 310 313 316 314 312 314 317 312 304 300 298 295 289 286 288 290 287 280 274
188 200 201 203 224 235 234 234 244 255 268 287 295 298 300 301 297 298 299 306 311 309 303 304 311 313 312 309 310 311 306 297 301 295 296 293 291 291 291 291 294 297 293
192 198 199 206 216 233 245 242 253 244 247 271 272 277 290 296 300 312 315 310 308 303 312 307 306 307 305 300 299 297 296 297 298 292 294 297 300 300 297 294 289 291 288
193 199 202 206 217 229 254 289 287 282 287 287 286 289 289 295 307 313 316 316 316 317 319 311 307 305 304 306 307 307 303 300 297 295 294 295 298 298 297 295 290 288 286
196 199 199 203 211 228 246 270 297 306 300 299 299 301 302 307 313 317 318 319 319 322 315 302 301 304 304 305 304 302 301 300 297 293 289 288 288 290 291 292 292 289 286
194 201 200 204 209 220 236 252 266 285 301 301 303 307 311 314 316 318 321 324 320 319 303 302 302 304 303 301 300 299 298 299 296 293 290 286 284 286 288 289 288 285 287
192 198 199 200 208 219 231 244 255 266 277 290 299 305 312 315 315 317 323 314 306 307 306 303 301 300 299 297 295 295 294 294 292 291 289 286 284 285 286 286 286 289 290
199 203 196 197 207 218 229 241 253 264 275 282 288 295 305 309 310 312 312 303 300 300 301 301 300 298 297 294 292 293 294 293 292 289 288 287 285 283 284 286 287 288 287
192 201 203 204 210 219 228 239 251 261 270 278 283 292 303 302 299 299 301 299 298 299 299 299 298 297 296 293 290 290 291 291 290 288 287 286 286 285 284 284 285 285 286
188 194 197 206 213 221 232 235 248 262 270 278 287 295 303 302 295 295 296 297 297 295 295 295 293 291 292 293 292 291 289 289 288 286 285 286 286 287 287 284 285 288 289
186 193 201 207 214 232 240 238 248 260 268 274 282 289 294 294 294 294 296 298 300 299 299 296 293 293 292 292 290 285 284 285 286 285 286 287 287 287 287 286 286 289 290
189 195 202 207 212 218 228 239 248 259 267 273 279 283 287 290 293 295 297 297 298 297 296 296 293 291 293 296 293 288 283 283 283 281 277 277 280 284 284 284 286 288 289
192 198 203 208 212 219 229 239 247 256 266 273 278 284 288 290 292 294 296 297 297 297 296 297 294 294 295 296 294 292 292 293 293 289 281 276 276 277 279 281 285 290 291
195 199 203 207 213 218 225 236 246 254 261 270 275 279 283 285 287 290 294 295 299 300 299 298 295 296 298 299 297 297 299 301 300 298 294 283 280 279 280 283 287 289 291
Height
1480 1478 1477 1475 1473 1472 1470 1468 1466 1465 1463 1461 1459 1458 1457 1456 1454 1453 1452 1451 1450 1449 1448 1447 1446 1445 1444 1443 1442 1441 1440 1438 1436 1433 1434 1433 1433 1433 1433 1433 1434 1434 1435
1479 1478 1476 1474 1473 1471 1469 1467 1466 1464 1462 1460 1459 1457 1455 1454 1452 1451 1449 1448 1447 1446 1445 1443 1442 1440 1439 1438 1436 1435 1434 1433 1431 1428 1427 1426 1426 1425 1424 1424 1424 1425 1425
1479 1477 1476 1474 1472 1471 1469 1467 1465 1463 1462 1460 1458 1456 1454 1452 1451 1449 1447 1446 1444 1443 1442 1440 1438 1436 1435 1434 1432 1430 1429 1427 1426 1423 1421 1420 1419 1418 1417 1416 1416 1415 1416
1478 1476 1475 1473 1472 1470 1468 1466 1464 1463 1461 1459 1457 1455 1453 1451 1450 1448 1446 1444 1443 1441 1439 1437 1435 1433 1432 1430 1428 1426 1424 1422 1420 1418 1415 1414 1413 1412 1411 1409 1407 1408 1407
1476 1475 1474 1472 1471 1469 1467 1465 1464 1462 1460 1458 1456 1454 1452 1450 1448 1446 1444 1442 1440 1438 1437 1435 1433 1431 1429 1427 1425 1422 1420 1418 1416 1414 1411 1409 1407 1406 1405 1403 1402 1400 1399
1474 1473 1472 1471 1469 1468 1466 1464 1462 1460 1458 1456 1454 1452 1450 1448 1446 1444 1442 1440 1438 1436 1434 1432 1429 1427 1425 1423 1421 1419 1417 1415 1412 1410 1407 1405 1403 1402 1400 1399 1397 1395 1393
1472 1471 1470 1469 1467 1466 1464 1462 1460 1458 1456 1454 1452 1450 1448 1446 1444 1442 1439 1437 1435 1433 1430 1428 1426 1424 1422 1419 1417 1415 1413 1411 1410 1408 1404 1402 1399 1398 1396 1394 1392 1390 1388
1469 1468 1467 1466 1465 1463 1462 1460 1458 1456 1454 1451 1449 1447 1445 1443 1441 1439 1436 1434 1432 1430 1427 1425 1422 1420 1417 1415 1412 1410 1408 1406 1405 1402 1400 1397 1396 1394 1393 1390 1388 1385 1382
1466 1465 1464 1463 1462 1460 1458 1457 1455 1453 1451 1449 1446 1444 1442 1440 1438 1436 1434 1431 1428 1426 1424 1421 1419 1416 1414 1411 1409 1405 1403 1401 1399 1397 1395 1393 1391 1389 1388 1385 1383 1380 1376
1463 1462 1461 1460 1458 1457 1455 1453 1452 1450 1448 1446 1443 1441 1439 1437 1435 1433 1430 1427 1424 1422 1419 1417 1415 1412 1409 1407 1404 1401 1398 1395 1393 1390 1388 1386 1384 1383 1381 1380 1378 1375 1372
1459 1458 1457 1456 1455 1453 1451 1450 1448 1446 1444 1442 1440 1438 1436 1434 1431 1429 1426 1424 1421 1418 1415 1412 1410 1408 1405 1402 1400 1397 1394 1391 1387 1385 1382 1380 1378 1376 1374 1373 1371 1370 1367
1455 1454 1453 1452 1451 1449 1448 1446 1444 1442 1440 1438 1436 1434 1432 1430 1428 1425 1423 1420 1418 1414 1411 1408 1405 1403 1400 1397 1395 1392 1389 1386 1382 1379 1376 1373 1371 1369 1367 1365 1364 1362 1360
1451 1450 1449 1448 1447 1445 1444 1442 1441 1439 1436 1434 1432 1430 1428 1426 1424 1421 1419 1416 1413 1410 1407 1404 1401 1398 1395 1392 1389 1386 1383 1380 1377 1374 1370 1367 1365 1362 1360 1358 1356 1354 1352
1446 1446 1445 1444 1443 1441 1440 1438 1436 1434 1432 1430 1428 1426 1423 1421 1419 1416 1414 1411 1408 1405 1402 1399 1396 1393 1390 1387 1384 1381 1378 1375 1372 1369 1365 1362 1359 1356 1354 1351 1348 1345 1342
1442 1441 1440 1439 1438 1437 1436 1434 1432 1431 1429 1427 1424 1422 1419 1416 1415 1412 1410 1406 1404 1401 1397 1394 1390 1387 1384 1381 1378 1375 1372 1370 1367 1363 1360 1356 1353 1350 1348 1345 1342 1339 1336
1437 1436 1435 1435 1434 1433 1431 1430 1428 1427 1425 1423 1420 1418 1415 1413 1410 1408 1405 1402 1399 1396 1393 1389 1386 1382 1379 1376 1373 1369 1367 1364 1361 1358 1355 1351 1348 1345 1342 1339 1337 1334 1330
1432 1431 1431 1430 1429 1428 1427 1425 1424 1422 1421 1419 1416 1414 1412 1409 1406 1403 1400 1397 1394 1391 1388 1385 1381 1378 1375 1371 1368 1365 1361 1358 1355 1352 1349 1346 1343 1340 1337 1334 1331 1328 1324
1427 1426 1426 1425 1425 1423 1422 1421 1419 1417 1416 1414 1412 1410 1407 1404 1402 1399 1396 1393 1389 1387 1384 1380 1377 1374 1370 1367 1363 1360 1356 1353 1349 1346 1343 1340 1337 1334 1331 1328 1325 1322 1318
1422 1421 1421 1421 1420 1419 1418 1417 1415 1413 1411 1409 1407 1405 1403 1400 1397 1395 1391 1388 1385 1382 1379 1376 1373 1369 1366 1362 1358 1354 1351 1347 1344 1341 1337 1334 1331 1328 1325 1322 1319 1316 1313
1417 1417 1416 1416 1415 1414 1413 1412 1410 1409 1407 1405 1403 1400 1398 1395 1392 1390 1387 1384 1381 1377 1374 1371 1368 1364 1361 1357 1353 1349 1345 1342 1338 1335 1332 1329 1326 1323 1320 1317 1314 1311 1307
1412 1412 1411 1411 1410 1409 1408 1407 1406 1404 1403 1401 1399 1396 1394 1391 1388 1385 1382 1379 1376 1373 1370 1366 1363 1359 1356 1352 1348 1344 1340 1336 1333 1329 1326 1323 1320 1317 1314 1311 1308 1306 1302
1406 1406 1406 1405 1405 1404 1403 1402 1401 1400 1398 1396 1394 1392 1390 1387 1384 1381 1378 1375 1372 1369 1366 1362 1358 1355 1351 1347 1343 1339 1335 1331 1328 1324 1321 1318 1315 1312 1309 1306 1304 1301 1298
1401 1401 1401 1400 1400 1400 1399 1398 1397 1395 1394 1392 1390 1387 1385 1382 1380 1377 1374 1371 1368 1364 1361 1357 1353 1349 1346 1342 1338 1334 1330 1326 1323 1320 1317 1313 1311 1308 1305 1302 1299 1297 1294
1395 1396 1395 1395 1395 1394 1394 1393 1392 1391 1389 1387 1385 1383 1381 1378 1375 1372 1369 1366 1363 1360 1357 1353 1349 1345 1341 1337 1333 1329 1326 1323 1319 1316 1313 1310 1307 1304 1301 1299 1296 1294 1291
1390 1390 1390 1390 1390 1389 1389 1388 1387 1386 1384 1383 1381 1379 1376 1374 1371 1368 1365 1362 1359 1355 1352 1348 1344 1340 1336 1332 1328 1325 1321 1318 1315 1312 1309 1306 1303 1301 1298 1296 1293 1291 1289
1385 1385 1385 1385 1385 1384 1384 1383 1382 1381 1380 1378 1376 1374 1372 1369 1367 1364 1361 1358 1354 1351 1348 1344 1340 1336 1332 1328 1324 1321 1317 1314 1311 1308 1305 1303 1300 1298 1295 1293 1291 1289 1287